"2009-02-04 00:00:00",599394,5.676,137.4,7.479,1.178,11.2,103.5043,8.25,9.29,28.54,0,110.2,13.34,9.03,99.4
"2009-02-04 00:00:30",599395,5.223,136.2,7.929,1.247,11.37,103.5077,8.26,9.37,28.6,0,110.2,13.33,9.04,98.2
"2009-02-04 00:01:00",599396,4.785,131.7,7.044,1.159,8.81,103.5131,8.27,9.12,28.32,0,110.2,13.34,9.05,93.7
"2009-02-04 00:01:30",599397,4.406,132.3,3.627,0.593,7.728,103.516,8.28,9.12,28.39,0,110.2,13.34,9.06,94.3
"2009-02-04 00:02:00",599398,6.298,142.5,8.17,1.249,10.58,103.5146,8.27,9.28,28.61,0,110.2,13.34,9.05,104.5
"2009-02-04 00:02:30",599399,6.074,143.1,6.801,1.31,10.6,103.5053,8.25,9.31,28.69,0,110.2,13.34,9.03,105.1
"2009-02-04 00:03:00",599400,6.102,141,6.414,1.294,10.85,103.4944,8.22,9.34,28.72,0,110.2,13.34,9.00,103.0
"2009-02-04 00:03:30",599401,5.283,137.3,6.195,1.156,9.72,103.4871,8.2,9.27,28.68,0,110.1,13.34,8.98,99.3
"2009-02-04 00:04:00",599402,5.955,142.1,7.045,1.232,10.92,103.4868,8.2,9.18,28.57,0,110.2,13.34,8.98,104.1
"2009-02-04 00:04:30",599403,4.1,133.7,1.458,0.15,7.867,103.4868,8.2,9.12,28.5,0,110.2,13.38,8.98,95.7
"2009-02-04 00:05:00",599404,4.733,138.6,4.826,1.281,9.58,103.4868,8.2,9.12,28.47,0,110.2,13.34,8.98,100.6
"2009-02-04 00:05:30",599405,5.472,143.5,6.683,1.226,10.96,103.4868,8.2,9.32,28.61,0,110.2,13.34,8.98,105.5
"2009-02-04 00:06:00",599406,3.903,136.6,2.83,0.536,8.65,103.4868,8.2,9.22,28.52,0,110.1,13.35,8.98,98.6
"2009-02-04 00:06:30",599407,5.081,145.1,7.271,1.326,11.05,103.4868,8.2,9.31,28.61,0,110.1,13.35,8.98,107.1
"2009-02-04 00:07:00",599408,4.097,143.6,6.635,1.077,9.04,103.4868,8.2,9.15,28.41,0,110.1,13.35,8.98,105.6
"2009-02-04 00:07:30",599409,4.926,148.5,7.621,1.274,10.73,103.4868,8.2,9.28,28.5,0,110.1,13.35,8.98,110.5
"2009-02-04 00:08:00",599410,3.548,137.9,3.449,0.647,8.41,103.4868,8.2,9.22,28.44,0,110.1,13.35,8.98,99.9
"2009-02-04 00:08:30",599411,3.696,140.5,4.999,0.751,9.04,103.4868,8.2,9.22,28.45,0,110.1,13.35,8.98,102.5
"2009-02-04 00:09:00",599412,4.404,142.1,6.525,1.244,9.82,103.4868,8.2,9.15,28.34,0,110.1,13.35,8.98,104.1
"2009-02-04 00:09:30",599413,3.629,140.4,6.668,0.852,9.12,103.4868,8.2,9.24,28.43,0,110.1,13.35,8.98,102.4
"2009-02-04 00:10:00",599414,5.049,143.8,6.378,1.171,11.01,103.4868,8.2,9.23,28.37,0,110.1,13.35,8.98,105.8
"2009-02-04 00:10:30",599415,3.776,138,6.213,1.034,9.17,103.4868,8.2,9.21,28.36,0,110.1,13.35,8.98,100.0
"2009-02-04 00:11:00",599416,3.408,138,4.515,0.759,8.4,103.4868,8.2,9.15,28.28,0,110.1,13.35,8.98,100.0
"2009-02-04 00:11:30",599417,4.727,142.8,6.468,1.177,11.17,103.4868,8.2,9.24,28.33,0,110.1,13.35,8.98,104.8
"2009-02-04 00:12:00",599418,4.429,143,6.645,1.288,11.26,103.4868,8.2,9.34,28.44,0,110.1,13.35,8.98,105.0
"2009-02-04 00:12:30",599419,3.076,134.9,3.032,0.473,8.37,103.4868,8.2,9.24,28.3,0,110.1,13.35,8.98,96.9
"2009-02-04 00:13:00",599420,4.189,142,6.154,1.309,9.92,103.4868,8.2,9.14,28.18,0,110.1,13.35,8.98,104.0
"2009-02-04 00:13:30",599421,4.575,143.6,6.341,1.249,10.99,103.4868,8.2,9.29,28.34,0,110.1,13.35,8.98,105.6
"2009-02-04 00:14:00",599422,3.371,139.2,4.629,0.912,8.95,103.4877,8.2,9.24,28.25,0,110.1,13.35,8.98,101.2
"2009-02-04 00:14:30",599423,3.406,139.9,5.085,1.092,8.98,103.4874,8.2,9.13,28.15,0,110.1,13.35,8.98,101.9
"2009-02-04 00:15:00",599424,4.169,147,6.146,1.263,10.91,103.4929,8.22,9.32,28.34,0,110.1,13.35,9.00,109.0
"2009-02-04 00:15:30",599425,4.608,146.3,5.681,1.134,11.45,103.4938,8.22,9.28,28.31,0,110.1,13.35,9.00,108.3
"2009-02-04 00:16:00",599426,2.82,135.2,1.806,0.07,8.23,103.4982,8.23,9.14,28.17,0,110.1,13.39,9.01,97.2
"2009-02-04 00:16:30",599427,3.3,138.1,6.336,1.007,9.28,103.5043,8.25,9.27,28.27,0,110.1,13.35,9.03,100.1
"2009-02-04 00:17:00",599428,4.461,144.1,7.032,1.262,10.84,103.509,8.26,9.28,28.29,0,110.1,13.35,9.04,106.1
"2009-02-04 00:17:30",599429,3.921,139.9,7.335,1.343,9.89,103.5134,8.27,9.25,28.28,0,110.1,13.35,9.05,101.9
"2009-02-04 00:18:00",599430,2.941,134.6,1.986,0.097,7.889,103.5109,8.26,9.09,28.13,0,110.1,13.39,9.04,96.6
"2009-02-04 00:18:30",599431,3.138,134.3,4.167,0.501,8.23,103.5026,8.24,9.14,28.2,0,110.1,13.36,9.02,96.3
"2009-02-04 00:19:00",599432,4.855,143.5,6.078,1.137,11.82,103.4902,8.21,9.34,28.39,0,110.1,13.35,8.99,105.5
"2009-02-04 00:19:30",599433,4.301,138.7,8.07,1.319,10.63,103.488,8.2,9.26,28.28,0,110.1,13.36,8.99,100.7
"2009-02-04 00:20:00",599434,3.739,134.4,4.8,1.061,8.64,103.488,8.2,9.12,28.16,0,110.1,13.36,8.99,96.4
"2009-02-04 00:20:30",599435,4.353,140.2,6.466,1.248,10.94,103.488,8.2,9.35,28.37,0,110.1,13.36,8.99,102.2
"2009-02-04 00:21:00",599436,4.079,140.5,6.513,1.168,9.52,103.488,8.2,9.11,28.17,0,110.1,13.36,8.99,102.5
"2009-02-04 00:21:30",599437,3.477,137.3,4.092,0.682,8.53,103.488,8.2,9.17,28.25,0,110.1,13.36,8.99,99.3
"2009-02-04 00:22:00",599438,4.05,137.8,5.451,1.169,9.11,103.488,8.2,9.21,28.37,0,110.1,13.36,8.99,99.8
"2009-02-04 00:22:30",599439,5.331,147.5,7.589,1.179,11.85,103.4854,8.2,9.24,28.46,0,110.1,13.37,8.98,109.5
"2009-02-04 00:23:00",599440,4.449,141.4,6.544,1.217,10.1,103.4756,8.17,9.23,28.46,0,110.1,13.37,8.95,103.4
"2009-02-04 00:23:30",599441,3.766,137.7,7.604,0.946,9.25,103.4578,8.13,9.21,28.45,0,110.1,13.37,8.91,99.7
"2009-02-04 00:24:00",599442,5.004,143.7,7.903,1.351,10.74,103.4541,8.12,9.23,28.5,0,110.1,13.37,8.90,105.7
"2009-02-04 00:24:30",599443,4.479,139.4,7.226,1.189,9.9,103.4541,8.12,9.16,28.45,0,110.1,13.37,8.90,101.4
"2009-02-04 00:25:00",599444,3.348,132,1.243,0.073,8.04,103.4541,8.12,9.01,28.26,0,110,13.4,8.90,94.0
"2009-02-04 00:25:30",599445,4.318,136.6,5.919,1.19,9.68,103.4541,8.12,9.06,28.29,0,110.1,13.38,8.90,98.6
"2009-02-04 00:26:00",599446,4.836,142.2,7.558,1.239,11.92,103.4541,8.12,9.28,28.5,0,110.1,13.38,8.90,104.2
"2009-02-04 00:26:30",599447,3.564,134.8,6.334,1.167,9.73,103.4541,8.12,9.19,28.32,0,110,13.38,8.90,96.8
"2009-02-04 00:27:00",599448,4.179,137.6,6.766,1.308,10.83,103.4541,8.12,9.19,28.22,0,110,13.38,8.90,99.6
"2009-02-04 00:27:30",599449,3.714,134.4,6.748,1.299,9.9,103.455,8.12,9.17,28.22,0,110,13.38,8.90,96.4
"2009-02-04 00:28:00",599450,3.601,133,6.458,1.236,9.73,103.4582,8.13,9.18,28.15,0,110,13.38,8.91,95.0
"2009-02-04 00:28:30",599451,2.647,130.5,0.743,0.069,7.808,103.464,8.14,9.02,27.98,0,110,13.41,8.92,92.5
"2009-02-04 00:29:00",599452,2.823,131.4,3.862,0.639,8.53,103.4667,8.15,9.17,28.06,0,110,13.38,8.93,93.4
"2009-02-04 00:29:30",599453,3.999,134.8,6.111,1.293,10.79,103.4758,8.17,9.17,27.99,0,110,13.38,8.95,96.8
"2009-02-04 00:30:00",599454,4.211,135.7,6.911,1.275,11.8,103.4899,8.21,9.23,27.97,0,110,13.38,8.99,97.7
"2009-02-04 00:30:30",599455,3.807,135.1,6.223,1.312,10.96,103.5044,8.25,9.27,28.03,0,110,13.38,9.03,97.1
"2009-02-04 00:31:00",599456,3.97,138.4,7.106,1.272,11.08,103.5139,8.27,9.34,28.06,0,110,13.38,9.05,100.4
"2009-02-04 00:31:30",599457,3.058,130.8,6.463,1.104,9.41,103.5207,8.29,9.23,27.92,0,110,13.38,9.07,92.8
"2009-02-04 00:32:00",599458,2.576,128,4.915,0.812,7.8,103.5222,8.29,9.09,27.74,0,110,13.38,9.07,90.0
"2009-02-04 00:32:30",599459,2.336,129.5,1.588,0.076,7.713,103.523,8.29,9.08,27.72,0,110,13.41,9.08,91.5
"2009-02-04 00:33:00",599460,3.309,132.8,8.13,1.255,9.75,103.523,8.29,9.16,27.75,0,110,13.38,9.08,94.8
"2009-02-04 00:33:30",599461,4.1,134.1,5.58,1.179,11.6,103.523,8.29,9.26,27.75,0,110,13.38,9.08,96.1
"2009-02-04 00:34:00",599462,2.234,128.4,3.569,0.265,8.73,103.523,8.29,9.24,27.73,0,110,13.38,9.08,90.4
"2009-02-04 00:34:30",599463,4.161,134.7,5.995,1.143,11.87,103.523,8.29,9.35,27.82,0,110,13.38,9.08,96.7
"2009-02-04 00:35:00",599464,3.582,126.4,9.18,1.293,10.22,103.523,8.29,9.35,27.79,0,110,13.38,9.08,88.4
"2009-02-04 00:35:30",599465,3.298,121.4,6.846,1.275,9.6,103.523,8.29,9.23,27.61,0,110,13.38,9.08,83.4
"2009-02-04 00:36:00",599466,2.233,117,2.527,0.07,7.52,103.523,8.29,9.14,27.56,0,110,13.42,9.08,79.0
"2009-02-04 00:36:30",599467,2.536,120.3,5.39,0.831,8.1,103.523,8.29,9.13,27.48,0,110,13.39,9.08,82.3
"2009-02-04 00:37:00",599468,2.625,120.8,4.52,0.833,8.59,103.523,8.29,9.25,27.6,0,110,13.39,9.08,82.8
"2009-02-04 00:37:30",599469,3.826,128.9,6.532,1.257,10.35,103.523,8.29,9.17,27.51,0,110,13.39,9.08,90.9
"2009-02-04 00:38:00",599470,3.248,126.5,6.032,1.195,10.13,103.5227,8.29,9.39,27.69,0,110,13.4,9.07,88.5
"2009-02-04 00:38:30",599471,4.317,125.6,6.362,1.232,11.89,103.5202,8.29,9.39,27.62,0,110,13.4,9.07,87.6
"2009-02-04 00:39:00",599472,3.575,125.2,6.069,1.371,9.78,103.5154,8.27,9.26,27.52,0,110,13.4,9.06,87.2
"2009-02-04 00:39:30",599473,2.65,123.2,4.507,0.796,8.32,103.5092,8.26,9.28,27.56,0,110,13.4,9.04,85.2
"2009-02-04 00:40:00",599474,2.37,121,1.097,0.056,7.519,103.4988,8.23,9.14,27.46,0,110,13.43,9.01,83.0
"2009-02-04 00:40:30",599475,2.44,127.6,4.677,0.636,8.24,103.49,8.21,9.28,27.62,0,110,13.4,8.99,89.6
"2009-02-04 00:41:00",599476,3.217,130.4,7.327,1.152,9.41,103.4906,8.21,9.18,27.54,0,110,13.4,8.99,92.4
"2009-02-04 00:41:30",599477,4.481,134.1,6.017,1.055,12.09,103.4912,8.21,9.35,27.75,0,110,13.4,8.99,96.1
"2009-02-04 00:42:00",599478,3.263,135.3,5.128,1.228,9.58,103.493,8.22,9.25,27.8,0,110,13.4,9.00,97.3
"2009-02-04 00:42:30",599479,4.639,141.5,7.228,1.022,12.16,103.4941,8.22,9.38,27.9,0,110,13.4,9.00,103.5
"2009-02-04 00:43:00",599480,4.229,134.6,6.309,1.189,11.15,103.4951,8.22,9.32,27.75,0,110,13.4,9.00,96.6
"2009-02-04 00:43:30",599481,2.481,124.5,0.831,0.035,7.402,103.4958,8.22,9.1,27.52,0,110,13.44,9.01,86.5
"2009-02-04 00:44:00",599482,2.415,124.7,0.706,0.034,7.507,103.4938,8.22,9.09,27.55,0,110,13.44,9.00,86.7
"2009-02-04 00:44:30",599483,3.047,128.6,5.19,1.143,8.91,103.5014,8.24,9.16,27.61,0,110,13.41,9.02,90.6
"2009-02-04 00:45:00",599484,3.491,133.2,6.41,1.235,10.12,103.5038,8.25,9.19,27.65,0,110,13.41,9.03,95.2
"2009-02-04 00:45:30",599485,2.471,128.4,0.57,0.481,8.59,103.5099,8.26,9.2,27.7,0,110,13.41,9.04,90.4
"2009-02-04 00:46:00",599486,4.343,139.9,5.028,1.065,12.29,103.5048,8.25,9.37,27.85,0,110,13.41,9.03,101.9
"2009-02-04 00:46:30",599487,4.119,138.2,6.473,1.208,11.62,103.5055,8.25,9.3,27.82,0,110,13.41,9.03,100.2
"2009-02-04 00:47:00",599488,3.326,133.3,6.503,1.218,9.7,103.5067,8.25,9.23,27.72,0,110,13.41,9.03,95.3
"2009-02-04 00:47:30",599489,2.251,125,1.141,0.03,7.427,103.509,8.26,9.1,27.55,0,110,13.44,9.04,87.0
"2009-02-04 00:48:00",599490,2.238,124.1,1.307,0.04,7.669,103.509,8.26,9.09,27.56,0,110,13.44,9.04,86.1
"2009-02-04 00:48:30",599491,3.282,131.9,6.462,1.265,9.87,103.5107,8.26,9.25,27.68,0,110,13.41,9.04,93.9
"2009-02-04 00:49:00",599492,2.412,133.2,2.709,0.528,8.16,103.5087,8.26,9.18,27.63,0,110,13.4,9.04,95.2
"2009-02-04 00:49:30",599493,2.575,134.8,4.955,0.788,9.22,103.5028,8.24,9.24,27.69,0,110,13.41,9.02,96.8
"2009-02-04 00:50:00",599494,4.216,141.4,6.441,1.177,12.13,103.4971,8.23,9.36,27.81,0,110,13.4,9.01,103.4
"2009-02-04 00:50:30",599495,3.595,138.9,7.142,1.298,10.75,103.494,8.22,9.31,27.76,0,110,13.4,9.00,100.9
"2009-02-04 00:51:00",599496,2.226,131.5,1.141,0.035,7.523,103.4912,8.21,9.1,27.56,0,110,13.44,8.99,93.5
"2009-02-04 00:51:30",599497,2.154,129.7,1.907,0.062,7.204,103.4903,8.21,9.11,27.55,0,110,13.44,8.99,91.7
"2009-02-04 00:52:00",599498,3.201,134.1,6.449,1.26,9.19,103.4903,8.21,9.18,27.65,0,110,13.41,8.99,96.1
"2009-02-04 00:52:30",599499,3.212,133.1,5.877,1.254,9.9,103.4903,8.21,9.23,27.72,0,110,13.41,8.99,95.1
"2009-02-04 00:53:00",599500,2.158,129.1,0.747,0.034,8.05,103.4903,8.21,9.1,27.61,0,110,13.45,8.99,91.1
"2009-02-04 00:53:30",599501,3.492,136.3,5.867,1.293,10.84,103.4903,8.21,9.31,27.85,0,109.9,13.41,8.99,98.3
"2009-02-04 00:54:00",599502,4.534,141.7,3.828,0.708,12.93,103.4903,8.21,9.36,27.92,0,110,13.41,8.99,103.7
"2009-02-04 00:54:30",599503,3.552,140.5,6.932,1.283,10.76,103.4903,8.21,9.31,27.95,0,110,13.41,8.99,102.5
"2009-02-04 00:55:00",599504,2.165,137.2,1.022,0.067,7.662,103.4901,8.21,9.1,27.83,0,110,13.45,8.99,99.2
"2009-02-04 00:55:30",599505,2.464,142.8,4.82,0.667,7.874,103.4807,8.19,9.1,28.02,0,109.9,13.42,8.97,104.8
"2009-02-04 00:56:00",599506,3.016,147,5.568,1.171,8.85,103.4613,8.14,9.12,28.15,0,110,13.42,8.92,109.0
"2009-02-04 00:56:30",599507,3.378,150.2,6.342,1.248,9.75,103.4565,8.12,9.16,28.29,0,110,13.42,8.90,112.2
"2009-02-04 00:57:00",599508,2.362,145.8,3.743,0.479,8.31,103.4565,8.12,9.18,28.39,0,110,13.45,8.90,107.8
"2009-02-04 00:57:30",599509,3.975,153.4,6.372,1.241,10.97,103.455,8.12,9.18,28.44,0,110,13.42,8.90,115.4
"2009-02-04 00:58:00",599510,4.051,153.3,6.639,1.22,11.83,103.4474,8.1,9.28,28.51,0,110,13.42,8.88,115.3
"2009-02-04 00:58:30",599511,3.569,151.1,6.923,1.333,10.36,103.4314,8.06,9.2,28.53,0,110,13.42,8.84,113.1
"2009-02-04 00:59:00",599512,2.206,144.1,1.254,0.042,7.192,103.4246,8.04,8.99,28.38,0,109.9,13.45,8.82,106.1
"2009-02-04 00:59:30",599513,2.4,144.9,3.067,0.671,7.337,103.4249,8.04,8.97,28.4,0,109.9,13.42,8.82,106.9
"2009-02-04 01:00:00",599514,3.224,148,6.105,1.281,9.67,103.4287,8.05,9.1,28.48,0,109.9,13.42,8.83,110.0
"2009-02-04 01:00:30",599515,2.201,142.9,0.816,0.03,7.851,103.4302,8.06,8.97,28.34,0,109.9,13.46,8.84,104.9
"2009-02-04 01:01:00",599516,3.361,149,6.972,1.294,9.61,103.4325,8.06,9,28.4,0,109.9,13.42,8.84,111.0
"2009-02-04 01:01:30",599517,3.333,149.4,6.663,1.301,10.53,103.434,8.07,9.15,28.52,0,109.9,13.42,8.85,111.4
"2009-02-04 01:02:00",599518,4.243,152.5,5.462,1.037,11.79,103.4386,8.08,9.2,28.55,0,109.9,13.42,8.86,114.5
"2009-02-04 01:02:30",599519,2.893,148.3,5.857,1.155,8.96,103.4389,8.08,9.04,28.45,0,109.9,13.42,8.86,110.3
"2009-02-04 01:03:00",599520,2.249,144.2,1.596,0.05,7.06,103.4421,8.09,8.96,28.33,0,109.9,13.46,8.87,106.2
"2009-02-04 01:03:30",599521,2.315,146.1,1.699,0.047,7.02,103.4474,8.1,9,28.44,0,109.9,13.45,8.88,108.1
"2009-02-04 01:04:00",599522,3.427,157.5,6.227,1.242,9.56,103.4474,8.1,9.02,28.59,0,109.9,13.42,8.88,119.5
"2009-02-04 01:04:30",599523,2.369,154.3,0.995,0.05,7.731,103.4492,8.11,8.98,28.67,0,109.9,13.46,8.89,116.3
"2009-02-04 01:05:00",599524,3.501,158.3,5.873,1.228,9.97,103.4394,8.08,9.13,28.9,0,109.9,13.42,8.86,120.3
"2009-02-04 01:05:30",599525,4.245,161.1,6.476,1.254,11.11,103.4247,8.04,9.13,29.06,0,109.9,13.42,8.82,123.1
"2009-02-04 01:06:00",599526,4.402,162.2,6.875,1.264,10.79,103.4205,8.03,9.16,29.32,0,109.9,13.42,8.81,124.2
"2009-02-04 01:06:30",599527,4.184,162,6.392,1.32,9.78,103.403,7.988,8.96,29.47,0,109.9,13.42,8.77,124.0
"2009-02-04 01:07:00",599528,3.87,160.4,6.384,1.196,8.45,103.3889,7.952,8.84,29.6,0,109.9,13.42,8.73,122.4
"2009-02-04 01:07:30",599529,4.151,164.1,5.962,1.182,9.45,103.3768,7.921,8.97,29.83,0,109.9,13.42,8.70,126.1
"2009-02-04 01:08:00",599530,3.476,154.7,1.275,0.436,7.516,103.3556,7.867,8.78,29.73,0,109.9,13.42,8.65,116.7
"2009-02-04 01:08:30",599531,4.63,157.5,6.637,1.293,9.57,103.3559,7.867,8.97,29.92,0,109.9,13.42,8.65,119.5
"2009-02-04 01:09:00",599532,5.584,159.2,7.194,1.239,11.05,103.3537,7.861,8.93,29.99,0,109.9,13.42,8.64,121.2
"2009-02-04 01:09:30",599533,5.959,148.8,6.683,1.444,10.4,103.3322,7.807,9.01,30.3,0,109.9,13.42,8.59,110.8
"2009-02-04 01:10:00",599534,5.661,153.9,9.45,1.152,9.92,103.322,7.781,8.85,30.29,0,109.9,13.42,8.56,115.9
"2009-02-04 01:10:30",599535,5.754,141.1,8.77,1.22,8.88,103.3172,7.768,8.86,30.42,0,109.9,13.43,8.55,103.1
"2009-02-04 01:11:00",599536,5.652,142.7,4.929,1.261,9.26,103.2938,7.708,8.76,30.37,0,109.9,13.43,8.49,104.7
"2009-02-04 01:11:30",599537,5.27,138.4,5.256,0.977,8.39,103.2881,7.694,8.63,30.14,0,109.9,13.43,8.47,100.4
"2009-02-04 01:12:00",599538,5.647,150.1,9.81,1.235,10.53,103.2881,7.694,8.84,30.38,0,109.9,13.43,8.47,112.1
"2009-02-04 01:12:30",599539,6.389,156.9,4.854,0.797,12.6,103.2881,7.694,8.89,30.35,0,109.9,13.43,8.47,118.9
"2009-02-04 01:13:00",599540,5.137,156.8,7.022,1.244,11.33,103.2881,7.694,8.85,30.27,0,109.9,13.43,8.47,118.8
"2009-02-04 01:13:30",599541,4.61,148.5,5.804,0.884,8.31,103.2881,7.694,8.7,30.2,0,109.9,13.43,8.47,110.5
"2009-02-04 01:14:00",599542,5.096,156.7,3.505,1.17,9.03,103.2881,7.694,8.64,30.25,0,109.9,13.43,8.47,118.7
"2009-02-04 01:14:30",599543,4.887,157.5,3.562,0.823,8.41,103.2881,7.694,8.71,30.28,0,109.9,13.43,8.47,119.5
"2009-02-04 01:15:00",599544,5.471,166.3,6.154,1.04,9.85,103.2881,7.694,8.73,30.22,0,109.9,13.43,8.47,128.3
"2009-02-04 01:15:30",599545,5.85,162.6,8.13,1.257,11.21,103.2881,7.694,8.84,30.34,0,109.9,13.43,8.47,124.6
"2009-02-04 01:16:00",599546,6.052,163.7,6.258,1.166,11.41,103.2881,7.694,8.82,30.25,0,109.9,13.43,8.47,125.7
"2009-02-04 01:16:30",599547,6.206,166.4,5.925,1.265,10.49,103.2881,7.694,8.68,30.13,0,109.9,13.43,8.47,128.4
"2009-02-04 01:17:00",599548,5.161,172,8.56,1.089,9.29,103.2881,7.694,8.7,30.16,0,109.9,13.43,8.47,134.0
"2009-02-04 01:17:30",599549,4.195,169.5,3.589,0.927,7.984,103.2881,7.694,8.62,29.95,0,109.9,13.43,8.47,131.5
"2009-02-04 01:18:00",599550,4.314,168.8,5.864,1.171,8.52,103.2881,7.694,8.59,29.84,0,109.9,13.43,8.47,130.8
"2009-02-04 01:18:30",599551,4.486,171,6.548,1.289,9.6,103.2887,7.695,8.71,29.96,0,109.9,13.43,8.47,133.0
"2009-02-04 01:19:00",599552,3.57,168.7,2.583,0.677,8.08,103.2975,7.718,8.62,29.82,0,109.9,13.44,8.50,130.7
"2009-02-04 01:19:30",599553,4.64,176.8,6.646,1.254,10.72,103.3113,7.753,8.87,30.04,0,109.9,13.44,8.53,138.8
"2009-02-04 01:20:00",599554,4.42,179.6,6.22,1.28,11.44,103.3201,7.776,8.89,30.04,0,109.9,13.44,8.55,141.6
"2009-02-04 01:20:30",599555,4.301,179.6,6.409,1.163,9.66,103.322,7.781,8.74,29.9,0,109.9,13.43,8.56,141.6
"2009-02-04 01:21:00",599556,3.929,177.6,6.026,1.049,8.26,103.3223,7.781,8.78,30.06,0,109.9,13.43,8.56,139.6
"2009-02-04 01:21:30",599557,4.394,177.4,6.462,1.174,8.78,103.3218,7.78,8.76,30.25,0,109.9,13.43,8.56,139.4
"2009-02-04 01:22:00",599558,4.025,176.2,3.986,0.943,8.08,103.3153,7.763,8.73,30.17,0,109.9,13.43,8.54,138.2
"2009-02-04 01:22:30",599559,3.773,176.6,4.655,0.777,8.24,103.3144,7.761,8.65,30.03,0,109.9,13.43,8.54,138.6
"2009-02-04 01:23:00",599560,4.488,179.9,6.151,1.257,9.93,103.3164,7.766,8.73,29.95,0,109.9,13.43,8.55,141.9
"2009-02-04 01:23:30",599561,5.205,183.9,6.402,1.1,11.97,103.3221,7.781,8.88,30.1,0,109.9,13.43,8.56,145.9
"2009-02-04 01:24:00",599562,5.251,184.4,6.004,1.119,11.44,103.3238,7.785,8.79,30.03,0,109.9,13.43,8.56,146.4
"2009-02-04 01:24:30",599563,3.53,174.4,3.858,0.482,7.275,103.3247,7.787,8.66,30.01,0,109.9,13.43,8.57,136.4
"2009-02-04 01:25:00",599564,3.561,177.3,3.697,0.741,7.443,103.325,7.788,8.76,30.05,0,109.9,13.43,8.57,139.3
"2009-02-04 01:25:30",599565,4.168,178.8,6.852,1.297,8.64,103.327,7.793,8.67,29.83,0,109.9,13.43,8.57,140.8
"2009-02-04 01:26:00",599566,3.018,174.5,1,0.051,7.489,103.3258,7.79,8.64,29.76,0,109.9,13.47,8.57,136.5
"2009-02-04 01:26:30",599567,3.111,177.1,0.488,0.041,7.638,103.3293,7.799,8.65,29.74,0,109.9,13.47,8.58,139.1
"2009-02-04 01:27:00",599568,3.81,182.7,6.654,1.151,9.65,103.3293,7.799,8.88,29.94,0,109.9,13.44,8.58,144.7
"2009-02-04 01:27:30",599569,5.338,190.3,4.924,0.962,12.48,103.3293,7.799,8.99,30.11,0,109.9,13.44,8.58,152.3
"2009-02-04 01:28:00",599570,4.421,186.6,5.991,1.216,9.86,103.3308,7.803,8.78,29.96,0,109.9,13.44,8.58,148.6
"2009-02-04 01:28:30",599571,4.332,184.2,7.758,1.277,9.05,103.3305,7.802,8.81,30.14,0,109.9,13.44,8.58,146.2
"2009-02-04 01:29:00",599572,3.462,183,3.824,0.932,7.627,103.3311,7.804,8.8,30,0,109.9,13.44,8.58,145.0
"2009-02-04 01:29:30",599573,3.553,180.7,2.643,0.524,7.078,103.3319,7.806,8.67,30.09,0,109.9,13.44,8.59,142.7
"2009-02-04 01:30:00",599574,3.488,180.9,1.171,0.098,7.216,103.3346,7.813,8.65,30.14,0,109.9,13.48,8.59,142.9
"2009-02-04 01:30:30",599575,5.113,192.4,5.654,1.247,10.63,103.3238,7.785,8.71,30.25,0,109.9,13.44,8.56,154.4
"2009-02-04 01:31:00",599576,5.665,192.8,5.73,1.079,11.89,103.3075,7.743,8.93,30.5,0,109.9,13.44,8.52,154.8
"2009-02-04 01:31:30",599577,5.924,192.4,4.444,0.917,11.96,103.303,7.732,8.93,30.54,0,109.9,13.44,8.51,154.4
"2009-02-04 01:32:00",599578,5.18,187.9,6.236,1.292,10.04,103.3065,7.741,8.79,30.43,0,109.9,13.44,8.52,149.9
"2009-02-04 01:32:30",599579,3.925,185.4,6.333,0.706,7.793,103.308,7.745,8.74,30.41,0,109.9,13.44,8.52,147.4
"2009-02-04 01:33:00",599580,3.699,183.5,1.111,0.121,6.873,103.3043,7.735,8.6,30.3,0,109.9,13.48,8.51,145.5
"2009-02-04 01:33:30",599581,3.778,183.4,0.876,0.126,7.186,103.2911,7.702,8.58,30.44,0,109.9,13.48,8.48,145.4
"2009-02-04 01:34:00",599582,4.524,186.5,5.723,1.045,9.09,103.2787,7.67,8.72,30.67,0,109.9,13.45,8.45,148.5
"2009-02-04 01:34:30",599583,5.72,194.9,4.736,1.155,11.99,103.2773,7.666,8.81,30.7,0,109.9,13.45,8.45,156.9
"2009-02-04 01:35:00",599584,5.92,196.6,2.455,0.902,12.41,103.2767,7.665,8.88,30.78,0,109.9,13.45,8.44,158.6
"2009-02-04 01:35:30",599585,5.473,189.9,6.195,1.219,10.27,103.2793,7.671,8.7,30.65,0,109.9,13.44,8.45,151.9
"2009-02-04 01:36:00",599586,3.87,182.9,1.554,0.12,6.862,103.2811,7.676,8.6,30.58,0,109.9,13.48,8.45,144.9
"2009-02-04 01:36:30",599587,3.704,183,0.825,0.113,6.75,103.2814,7.677,8.53,30.45,0,109.9,13.48,8.46,145.0
"2009-02-04 01:37:00",599588,3.815,182.3,1.057,0.053,7.153,103.2814,7.677,8.52,30.42,0,109.9,13.48,8.46,144.3
"2009-02-04 01:37:30",599589,4.767,188.9,6.127,1.291,9.76,103.2834,7.682,8.61,30.5,0,109.9,13.44,8.46,150.9
"2009-02-04 01:38:00",599590,4.7,192.4,6.594,1.294,11.12,103.2849,7.686,8.82,30.74,0,109.9,13.44,8.46,154.4
"2009-02-04 01:38:30",599591,5.393,196,5.605,1.178,11.74,103.286,7.689,8.81,30.71,0,109.9,13.44,8.47,158.0
"2009-02-04 01:39:00",599592,5.86,196.2,3.579,0.905,12.02,103.2887,7.695,8.85,30.68,0,109.9,13.44,8.47,158.2
"2009-02-04 01:39:30",599593,4.255,185.1,5.339,1.083,7.885,103.284,7.683,8.53,30.38,0,109.9,13.44,8.46,147.1
"2009-02-04 01:40:00",599594,3.459,182.9,0.607,0.089,6.776,103.2869,7.691,8.54,30.38,0,109.9,13.47,8.47,144.9
"2009-02-04 01:40:30",599595,3.97,187.9,5.966,1.123,8.01,103.2943,7.71,8.56,30.36,0,109.9,13.44,8.49,149.9
"2009-02-04 01:41:00",599596,3.704,187.1,4.829,0.876,8.75,103.3053,7.738,8.71,30.47,0,109.9,13.44,8.52,149.1
"2009-02-04 01:41:30",599597,4.009,187,5.657,1.035,8.79,103.3109,7.752,8.56,30.31,0,109.9,13.44,8.53,149.0
"2009-02-04 01:42:00",599598,5.748,195.6,5.233,0.973,12.21,103.309,7.747,8.77,30.58,0,109.9,13.45,8.53,157.6
"2009-02-04 01:42:30",599599,6.188,193.6,5.153,0.886,12.31,103.2901,7.699,8.86,30.88,0,109.9,13.45,8.48,155.6
"2009-02-04 01:43:00",599600,5.974,188.7,7.9,1.173,10.4,103.289,7.696,8.69,31.05,0,109.9,13.45,8.48,150.7
"2009-02-04 01:43:30",599601,4.38,181.7,1.827,0.154,7.112,103.2635,7.631,8.52,30.97,0,109.9,13.48,8.41,143.7
"2009-02-04 01:44:00",599602,5.24,187.4,6.734,1.234,8.83,103.2553,7.61,8.63,31.01,0,109.9,13.45,8.39,149.4
"2009-02-04 01:44:30",599603,5.407,187.6,5.952,1.356,9.08,103.255,7.609,8.6,31.38,0,109.9,13.45,8.39,149.6
"2009-02-04 01:45:00",599604,4.629,182.8,2.394,0.165,7.606,103.2347,7.557,8.46,31.31,0,109.9,13.46,8.34,144.8
"2009-02-04 01:45:30",599605,6.836,193.3,5.036,1.145,11.75,103.2214,7.523,8.74,31.56,0,109.9,13.45,8.30,155.3
"2009-02-04 01:46:00",599606,7.324,194.4,3.556,0.903,12.13,103.2214,7.523,8.73,31.86,0,109.9,13.46,8.30,156.4
"2009-02-04 01:46:30",599607,6.19,188.1,6.688,1.21,9.71,103.2084,7.49,8.59,31.81,0,109.9,13.45,8.27,150.1
"2009-02-04 01:47:00",599608,6.257,193.4,6.679,1.396,9.69,103.1889,7.44,8.45,31.69,0,109.9,13.45,8.22,155.4
"2009-02-04 01:47:30",599609,6.029,191.7,4.599,1.409,9.28,103.1875,7.437,8.48,31.67,0,109.9,13.45,8.21,153.7
"2009-02-04 01:48:00",599610,4.745,185.7,2.486,0.292,7.371,103.1875,7.437,8.32,31.62,0,109.9,13.48,8.21,147.7
"2009-02-04 01:48:30",599611,5.855,195.5,7.661,1.34,10.19,103.1875,7.437,8.5,31.81,0,109.9,13.45,8.21,157.5
"2009-02-04 01:49:00",599612,6.431,196.2,6.761,1.101,11.17,103.1875,7.437,8.62,31.86,0,109.9,13.46,8.21,158.2
"2009-02-04 01:49:30",599613,5.295,190.2,6.103,1.083,8.85,103.1875,7.437,8.4,31.76,0,109.9,13.46,8.21,152.2
"2009-02-04 01:50:00",599614,6.469,188.3,5.613,1.434,10.17,103.1875,7.437,8.55,32.03,0,109.9,13.45,8.21,150.3
"2009-02-04 01:50:30",599615,6.172,188.1,7.116,1.208,9.68,103.187,7.435,8.5,32,0,109.9,13.46,8.21,150.1
"2009-02-04 01:51:00",599616,5.15,184.1,2.126,0.158,7.134,103.1833,7.426,8.34,31.89,0,109.9,13.49,8.20,146.1
"2009-02-04 01:51:30",599617,6.182,193.3,6.566,1.327,9.54,103.1742,7.403,8.44,31.98,0,109.9,13.45,8.18,155.3